Вернуться в каталог

STARLINK-11425

АктивенСвязьVLEO
NORAD 61943·PAYLOAD·🇺🇸 United States

Запущен Nov 14, 2024 с Vandenberg Space Force Base

Loading…

Ближайшие Пролёты (ближайшие 24 часа)

TLE

СвежийSource: CelesTrak SupGP

Эпоха: Sep 15, 2026, 02:13 UTC

1 61943C 24209E   26258.09284722  .00005129  00000+0  42245-4 0  2582
2 61943  53.1569 157.8579 0001295  88.1157 211.8263 15.69709594    12

Отслеживайте STARLINK-11425 в реальном времени с AllMySat

Download on the App Store